"Pseudo-MPEC" for CC4ALN2

Created 2024 Oct 25 11:31:17 UT using Find_Orb

Click here for an explanation of pseudo-MPECs

 
 Astrometry: 
     CC4ALN2*1C2024 10 23.45330804 40 41.257+09 39 23.90   ~ANBV 20.91GVNEOCPG96
     CC4ALN2 1C2024 10 23.45840104 40 36.145+09 39 32.40   ~ANBV 21.33GVNEOCPG96
     CC4ALN2 1C2024 10 23.46349404 40 31.037+09 39 40.64   ~ANBV 20.84GVNEOCPG96
     CC4ALN2 1C2024 10 23.46858604 40 25.936+09 39 48.96   ~ANBV 21.62GVNEOCPG96
     CC4ALN2 KC2024 10 23.51132904 39 43.910+09 40 59.10   ~ANCl       VNEOCPI52
     CC4ALN2 KC2024 10 23.51339604 39 41.900+09 41 01.70   ~ANCl 20.39GVNEOCPI52
     CC4ALN2 KC2024 10 24.30051404 28 39.169+10 00 39.85   ~AO7l 21.46GVNEOCPI52
     CC4ALN2 KC2024 10 24.30427004 28 35.976+10 00 45.43   ~AO7l 21.62GVNEOCPI52
     CC4ALN2 KC2024 10 24.33903904 28 06.31 +10 01 28.3    ~AOA2 21.4 GXNEOCP858
     CC4ALN2 KC2024 10 24.35415204 27 53.77 +10 01 48.5    ~AOA2 21.6 GXNEOCP858

Station data:
(858) Tebbutt Observatory, Edgewood  (N35.093869 W106.220000)  US/New Mexico.
    Observer F. B. Zoltowski. 0.16-m refractor + CCD0.51-m Schmidt-Cassegrain
   + CCD.
(G96) Mt. Lemmon Survey  (N32.442729 W110.788720)  US/Arizona.  Observer E.
   J. Christensen. 1.5-m reflector + 10K CCD.
(I52) Steward Observatory, Mt. Lemmon Station  (N32.442570 W110.788920)
   US/Arizona.  Observers T. A. Pruyne, B. M. Africano, E. J. Christensen, G.
   A. Farneth, D. C. Fuls, A. R. Gibbs, A. D. Grauer, H. Gröller, J. A.
   Johnson, R. A. Kowalski, S. M. Larson, G. J. Leonard, D. Rankin, R. L.
   Seaman, F. C. Shelly, K. W. Wierzchoś. 1.0-m prime focus + CCD.

Orbital elements:  CC4ALN2
   Perihelion 2024 Sep 2.64193 +/- 0.268 TT = 15:24:23 (JD 2460556.14193)
Epoch 2024 Oct 24.0 TT = JDT 2460607.5   Earth MOID: 0.0094   Ve: 0.0955
M  25.36378305 +/- 0.55             Ma: 0.0131                   AutoNEOCP
n   0.49386172 +/- 0.00839          Peri.  144.54824 +/- 0.50
a   1.58513335 +/- 0.018            Node   177.12892 +/- 0.7
e   0.4891929 +/- 0.00639           Incl.    1.11382 +/- 0.023
P   1.996/728.935d         H 26.19  G  0.15   U  9.5
q 0.80969730 +/- 0.00134    Q 2.36056940 +/- 0.0368       (J2000 ecliptic)
From 10 observations 2024 Oct. 23-24 (21.6 hr); mean residual 0".38
Residuals in arcseconds: 
241023 G96  .75+  .13+    241023 I52  .07+  .42+    241024 858  .28-  .25+    
241023 G96  .24+  .11+    241023 I52  .18+  .27-    241024 858  .23+  .12+    
241023 G96  .33-  .13-    241024 I52  .52+  .39-    
241023 G96  .94-  .25-    241024 I52  .45-  .10-    

Ephemerides (geocentric):
Date (UTC) HH   RA             Dec           delta  r     elong  mag " sig PA
---- --------  ------------   ------------  ------ ------ -----  --- --------
2024 10 25 12  04 14 30.727   +10 24 03.27  .06618 1.0504 147.0 21.7 4.31 100
2024 10 25 13  04 14 04.724   +10 24 42.41  .06645 1.0507 147.2 21.7 4.48 100
2024 10 25 14  04 13 38.918   +10 25 21.12  .06672 1.0510 147.3 21.7 4.65 100
2024 10 25 15  04 13 13.305   +10 25 59.40  .06698 1.0513 147.5 21.7 4.82  99
2024 10 25 16  04 12 47.886   +10 26 37.27  .06725 1.0516 147.6 21.8 4.99  99
2024 10 25 17  04 12 22.656   +10 27 14.72  .06752 1.0519 147.8 21.8 5.16  99
2024 10 25 18  04 11 57.614   +10 27 51.77  .06778 1.0522 147.9 21.8 5.34  99
2024 10 25 19  04 11 32.758   +10 28 28.42  .06805 1.0525 148.0 21.8 5.52  99
2024 10 25 20  04 11 08.087   +10 29 04.68  .06832 1.0528 148.2 21.8 5.70  99
2024 10 25 21  04 10 43.598   +10 29 40.54  .06859 1.0532 148.3 21.8 5.87  98
2024 10 25 22  04 10 19.288   +10 30 16.03  .06886 1.0535 148.5 21.8 6.06  98
2024 10 25 23  04 09 55.157   +10 30 51.13  .06913 1.0538 148.6 21.8 6.24  98
2024 10 26 00  04 09 31.203   +10 31 25.87  .06940 1.0541 148.7 21.8 6.42  98
2024 10 26 01  04 09 07.423   +10 32 00.24  .06966 1.0544 148.9 21.8 6.61  98
2024 10 26 02  04 08 43.815   +10 32 34.24  .06993 1.0547 149.0 21.8 6.79  98
2024 10 26 03  04 08 20.379   +10 33 07.89  .07020 1.0550 149.1 21.8 6.98  98
2024 10 26 04  04 07 57.112   +10 33 41.19  .07047 1.0553 149.3 21.8 7.16  97
2024 10 26 05  04 07 34.011   +10 34 14.14  .07074 1.0556 149.4 21.8 7.35  97
2024 10 26 06  04 07 11.077   +10 34 46.74  .07102 1.0559 149.5 21.8 7.54  97
2024 10 26 07  04 06 48.306   +10 35 19.01  .07129 1.0562 149.7 21.8 7.73  97
2024 10 26 08  04 06 25.698   +10 35 50.95  .07156 1.0565 149.8 21.8 7.92  97
2024 10 26 09  04 06 03.250   +10 36 22.56  .07183 1.0568 149.9 21.8 8.11  97
2024 10 26 10  04 05 40.960   +10 36 53.85  .07210 1.0571 150.1 21.8 8.31  97
2024 10 26 11  04 05 18.828   +10 37 24.81  .07237 1.0574 150.2 21.8 8.50  97
2024 10 26 12  04 04 56.852   +10 37 55.46  .07264 1.0577 150.3 21.9 8.69  97
2024 10 26 13  04 04 35.029   +10 38 25.80  .07292 1.0580 150.5 21.9 8.89  97
2024 10 26 14  04 04 13.359   +10 38 55.84  .07319 1.0583 150.6 21.9 9.08  97
2024 10 26 15  04 03 51.839   +10 39 25.57  .07346 1.0587 150.7 21.9 9.28  97
2024 10 26 16  04 03 30.469   +10 39 55.01  .07373 1.0590 150.8 21.9 9.48  96
2024 10 26 17  04 03 09.247   +10 40 24.15  .07401 1.0593 151.0 21.9 9.67  96
2024 10 26 18  04 02 48.171   +10 40 53.00  .07428 1.0596 151.1 21.9 9.87  96
2024 10 26 19  04 02 27.240   +10 41 21.56  .07455 1.0599 151.2 21.9 10.1  96
2024 10 26 20  04 02 06.452   +10 41 49.84  .07483 1.0602 151.3 21.9 10.3  96
2024 10 26 21  04 01 45.806   +10 42 17.84  .07510 1.0605 151.5 21.9 10.5  96
2024 10 26 22  04 01 25.301   +10 42 45.57  .07538 1.0608 151.6 21.9 10.7  96
2024 10 26 23  04 01 04.934   +10 43 13.03  .07565 1.0611 151.7 21.9 10.9  96
2024 10 27 00  04 00 44.706   +10 43 40.22  .07592 1.0614 151.8 21.9 11.1  96
2024 10 27 01  04 00 24.613   +10 44 07.15  .07620 1.0617 152.0 21.9 11.3  96
2024 10 27 02  04 00 04.656   +10 44 33.81  .07647 1.0620 152.1 21.9 11.5  96
2024 10 27 03  03 59 44.833   +10 45 00.22  .07675 1.0623 152.2 21.9 11.7  96
2024 10 27 04  03 59 25.141   +10 45 26.37  .07702 1.0626 152.3 21.9 11.9  96
2024 10 27 05  03 59 05.581   +10 45 52.28  .07730 1.0629 152.4 21.9 12.1  96
2024 10 27 06  03 58 46.151   +10 46 17.94  .07758 1.0633 152.6 21.9 12.3  96
2024 10 27 07  03 58 26.849   +10 46 43.35  .07785 1.0636 152.7 21.9 12.5  96
2024 10 27 08  03 58 07.674   +10 47 08.52  .07813 1.0639 152.8 22.0 12.7  96
2024 10 27 09  03 57 48.626   +10 47 33.46  .07840 1.0642 152.9 22.0 12.9  96
2024 10 27 10  03 57 29.702   +10 47 58.16  .07868 1.0645 153.0 22.0 13.1  95
2024 10 27 11  03 57 10.902   +10 48 22.63  .07896 1.0648 153.1 22.0 13.3  95